Location: Unspecified
(0.0000°N, 0.0000°E)
Time: 01:37:57
(UTC+00:00)

Traac - Pass Details

Date: 20 December 2025
Orbit: 951 x 1102 km, 32.4° (Epoch: 19 January)

Event Time Altitude Azimuth Distance (km) Brightness Sun altitude
Exits shadow 04:02:55 56° 322° (NW) 1,239 8.1 -26.1°
Maximum altitude 04:04:32 79° 34° (NE) 1,081 8.1 -25.7°
Drops below altitude 10° 04:11:44 10° 121° (ESE) 2,927 11.6 -24.1°
Sets 04:14:31 0° 122° (ESE) 3,896 12.6 -23.5°
